Dothan, AL

10:03 PM CDT on October 17, 2017 (GMT -0500)
Dothan Regional

Weather History for KDHN - September, 2013

Change the Weather History Date:

Sunday, September 22, 2013

  Actual Average Record
Temperature  
Mean Temperature 73 °F 75 °F  
Max Temperature 79 °F 86 °F 95 °F (2010)
Min Temperature 67 °F 64 °F 54 °F (1938)
Degree Days  
Heating Degree Days 0 0  
Month to date heating degree days 0 0  
Since 1 July heating degree days 0 0  
Cooling Degree Days 8 10  
Month to date cooling degree days 319 278  
Year to date cooling degree days 2073 2158  
Growing Degree Days 23 (Base 50)    
Moisture  
Dew Point 68 °F    
Average Humidity 87    
Maximum Humidity 96    
Minimum Humidity 73    
Precipitation  
Precipitation 0.07 in 0.09 in 1.33 in (1946)
Month to date precipitation 3.70 2.86  
Year to date precipitation 61.54 41.25  
Sea Level Pressure  
Sea Level Pressure 29.81 in    
Wind  
Wind Speed 5 mph (NE)    
Max Wind Speed 8 mph    
Max Gust Speed -    
Visibility 10 miles    
Events Rain    
T = Trace of Precipitation, MM = Missing Value Source: NWS Daily Summary

Daily Weather History Graph

Daily Weather History Graph

Search for Another Location

Airport or City:

Trip Planner

Search our weather history database for the weather conditions in past years. The results will help you decide how hot, cold, wet, or windy it might be!

Date:

Astronomy

Sep. 22, 2013 Rise Set
Actual Time 6:30 AM CDT 6:38 PM CDT
Civil Twilight 6:05 AM CDT 7:02 PM CDT
Nautical Twilight 5:37 AM CDT 7:30 PM CDT
Astronomical Twilight 5:09 AM CDT 7:58 PM CDT
Moon 8:43 PM CDT (9/22) 9:34 AM CDT (9/22)
Length of Visible Light 12h 56m
Length of Day
12h 07m
Waning Gibbous, 88% of the Moon is Illuminated
Sep 22
Waning Gibbous
Sep 26
Last Quarter
Oct 4
New
Oct 11
First Quarter
Oct 18
Full

Hourly Weather History & Observations

Time (CDT) Temp. Dew Point Humidity Pressure Visibility Wind Dir Wind Speed Gust Speed Precip Events Conditions
12:53 AM 73.0 °F 72.0 °F 96% 29.78 in 10.0 mi SW 5.8 mph - 0.00 in   Overcast
1:33 AM 73.4 °F 71.6 °F 94% 29.79 in 10.0 mi SSW 8.1 mph - N/A   Overcast
1:53 AM 73.0 °F 72.0 °F 96% 29.77 in 10.0 mi SSW 6.9 mph - N/A   Overcast
2:17 AM 73.4 °F 71.6 °F 94% 29.78 in 10.0 mi SW 4.6 mph - 0.00 in Rain Light Rain
2:39 AM 73.4 °F 71.6 °F 94% 29.78 in 10.0 mi SW 5.8 mph - 0.00 in   Overcast
2:53 AM 73.0 °F 72.0 °F 96% 29.77 in 10.0 mi West 6.9 mph - 0.00 in   Overcast
3:53 AM 69.1 °F 68.0 °F 96% 29.77 in 10.0 mi North 8.1 mph - 0.06 in Rain Light Rain
4:11 AM 68.0 °F 66.2 °F 94% 29.79 in 10.0 mi North 4.6 mph - 0.00 in   Overcast
4:31 AM 68.0 °F 66.2 °F 94% 29.79 in 10.0 mi NNE 6.9 mph - 0.00 in   Overcast
4:53 AM 68.0 °F 66.9 °F 96% 29.78 in 10.0 mi Calm Calm - 0.00 in   Overcast
5:17 AM 68.0 °F 66.2 °F 94% 29.80 in 10.0 mi NE 4.6 mph - 0.00 in Rain Light Rain
5:53 AM 68.0 °F 66.9 °F 96% 29.79 in 9.0 mi NNE 4.6 mph - 0.01 in Rain Light Rain
6:53 AM 68.0 °F 66.0 °F 93% 29.80 in 10.0 mi North 4.6 mph - 0.00 in   Overcast
7:53 AM 68.0 °F 66.9 °F 96% 29.81 in 6.0 mi NNE 6.9 mph - 0.00 in   Overcast
8:01 AM 69.8 °F 66.2 °F 88% 29.82 in 10.0 mi NE 5.8 mph - N/A   Overcast
8:24 AM 69.8 °F 66.2 °F 88% 29.83 in 7.0 mi NNE 6.9 mph - N/A   Overcast
8:53 AM 70.0 °F 66.9 °F 90% 29.83 in 7.0 mi Variable 3.5 mph - N/A   Overcast
9:36 AM 71.6 °F 66.2 °F 83% 29.85 in 10.0 mi ENE 5.8 mph - N/A   Overcast
9:53 AM 71.1 °F 66.0 °F 84% 29.84 in 10.0 mi NE 8.1 mph - N/A   Overcast
10:04 AM 71.6 °F 66.2 °F 83% 29.86 in 10.0 mi NE 6.9 mph - N/A   Overcast
10:13 AM 71.6 °F 66.2 °F 83% 29.86 in 10.0 mi NE 5.8 mph - N/A   Overcast
10:53 AM 72.0 °F 66.0 °F 81% 29.85 in 10.0 mi ENE 4.6 mph - N/A   Overcast
11:27 AM 73.4 °F 66.2 °F 78% 29.86 in 10.0 mi NNE 3.5 mph - N/A   Overcast
11:53 AM 75.0 °F 66.9 °F 76% 29.85 in 10.0 mi Calm Calm - N/A   Overcast
12:26 PM 75.2 °F 66.2 °F 73% 29.85 in 10.0 mi Calm Calm - N/A   Mostly Cloudy
12:53 PM 77.0 °F 69.1 °F 76% 29.83 in 10.0 mi North 6.9 mph - N/A   Overcast
1:53 PM 78.1 °F 69.1 °F 74% 29.81 in 10.0 mi North 5.8 mph - N/A   Mostly Cloudy
2:53 PM 77.0 °F 69.1 °F 76% 29.81 in 10.0 mi NNE 4.6 mph - N/A   Overcast
3:00 PM 75.2 °F 68.0 °F 78% 29.82 in 10.0 mi North 4.6 mph - N/A   Overcast
3:34 PM 75.2 °F 68.0 °F 78% 29.82 in 10.0 mi NE 4.6 mph - N/A   Overcast
3:43 PM 75.2 °F 68.0 °F 78% 29.81 in 10.0 mi NNE 3.5 mph - N/A   Overcast
3:53 PM 77.0 °F 68.0 °F 74% 29.80 in 10.0 mi NNE 3.5 mph - N/A   Overcast
4:28 PM 75.2 °F 69.8 °F 83% 29.82 in 10.0 mi NE 4.6 mph - N/A   Overcast
4:53 PM 73.9 °F 69.1 °F 85% 29.82 in 10.0 mi NNE 4.6 mph - 0.00 in   Overcast
5:11 PM 75.2 °F 69.8 °F 83% 29.82 in 10.0 mi ENE 4.6 mph - N/A   Overcast
5:53 PM 73.9 °F 69.1 °F 85% 29.82 in 10.0 mi East 3.5 mph - N/A   Overcast
6:53 PM 73.9 °F 69.1 °F 85% 29.83 in 10.0 mi Calm Calm - N/A   Overcast
7:53 PM 73.0 °F 69.1 °F 87% - 10.0 mi East 3.5 mph - N/A   Mostly Cloudy
8:53 PM 73.0 °F 69.1 °F 87% - 10.0 mi East 4.6 mph - N/A   Overcast
9:53 PM 72.0 °F 69.1 °F 91% - 10.0 mi ENE 5.8 mph - N/A   Partly Cloudy
10:53 PM 71.1 °F 69.1 °F 93% - 10.0 mi East 3.5 mph - N/A   Mostly Cloudy
11:53 PM 71.1 °F 69.1 °F 93% - 10.0 mi ENE 5.8 mph - N/A   Overcast